User: anonymous   Login
Location: Hamburg
(53.5500°N, 10.0000°E)
Time: 01:29:25
(UTC+01:00)
Language:

Courier 1B - Orbit

View from above orbital plane
View from above orbital plane
View from above satellite
View from above satellite

Ground track
Ground track

The orbit data is extracted from the following two-line orbital elements,

1 00058U 60013A   15030.88268237  .00000127  00000-0  67188-4 0  8674
2 00058 028.3286 341.2056 0164951 004.7359 355.4712 13.46287205674203
Epoch (UTC): 30 January 2015 21:11:03
Eccentricity: 0.0164951
inclination: 28.3286°
perigee height: 963 km
apogee height: 1209 km
right ascension of ascending node: 341.2056°
argument of perigee: 4.7359°
revolutions per day: 13.46287205
mean anomaly at epoch: 355.4712°
orbit number at epoch: 67420

The dashed part of the orbit path shows where the satellite is in the earth's shadow,  

DLR